| time (UTC) | temp C | wind direction | speed KPH | gust KPH | rain 1hr cm | rain 24hr cm | rain mn cm | humidity % | barometer mb |
| 20260903170041 | 33 | 252 | 4.8 | 11.3 | 0.00 | 0.00 | 0.00 | 56 | 1013.9 |
| 20260903164541 | 33 | 201 | 3.2 | 12.9 | 0.00 | 0.00 | 0.00 | 58 | 1014.1 |
| 20260903163052 | 33 | 53 | 4.8 | 16.1 | 0.00 | 0.00 | 0.00 | 59 | 1014.1 |
| 20260903161547 | 33 | 131 | 3.2 | 14.5 | 0.00 | 0.00 | 0.00 | 59 | 1014.2 |
| 20260903160042 | 32 | 143 | 1.6 | 12.9 | 0.00 | 0.00 | 0.00 | 61 | 1014.3 |
| 20260903154553 | 32 | 136 | 4.8 | 14.5 | 0.00 | 0.00 | 0.00 | 62 | 1014.3 |
| 20260903153048 | 31 | 179 | 4.8 | 11.3 | 0.00 | 0.00 | 0.00 | 63 | 1014.2 |
| 20260903151547 | 31 | 209 | 4.8 | 11.3 | 0.00 | 0.00 | 0.00 | 64 | 1014.3 |
| 20260903150053 | 31 | 198 | 4.8 | 12.9 | 0.00 | 0.00 | 0.00 | 65 | 1014.3 |
| 20260903144544 | 30 | 283 | 4.8 | 17.7 | 0.00 | 0.00 | 0.00 | 66 | 1014.5 |
| 20260903143101 | 30 | 311 | 3.2 | 16.1 | 0.00 | 0.00 | 0.00 | 67 | 1014.5 |
| 20260903141548 | 30 | 193 | 1.6 | 12.9 | 0.00 | 0.00 | 0.00 | 69 | 1014.6 |
| 20260903140045 | 28 | 211 | 1.6 | 9.7 | 0.00 | 0.00 | 0.00 | 71 | 1014.5 |
| 20260903134549 | 28 | 202 | 3.2 | 12.9 | 0.00 | 0.00 | 0.00 | 73 | 1014.5 |
| 20260903133052 | 27 | 212 | 0.0 | 6.4 | 0.00 | 0.00 | 0.00 | 75 | 1014.5 |
| 20260903131552 | 26 | 0 | 0.0 | 4.8 | 0.00 | 0.00 | 0.00 | 77 | 1014.4 |
| 20260903130044 | 25 | 0 | 0.0 | 6.4 | 0.00 | 0.00 | 0.00 | 81 | 1014.4 |
| 20260903124540 | 24 | 0 | 0.0 | 0.0 | 0.00 | 0.00 | 0.00 | 83 | 1014.3 |
| 20260903123041 | 23 | 0 | 0.0 | 0.0 | 0.00 | 0.00 | 0.00 | 83 | 1014.3 |
| 20260903121546 | 23 | 146 | 0.0 | 0.0 | 0.00 | 0.00 | 0.00 | 82 | 1014.1 |
| 20260903120043 | 23 | 0 | 0.0 | 0.0 | 0.00 | 0.00 | 0.00 | 81 | 1014.0 |
| 20260903114554 | 24 | 0 | 0.0 | 3.2 | 0.00 | 0.00 | 0.00 | 80 | 1013.9 |
| 20260903113047 | 24 | 0 | 0.0 | 0.0 | 0.00 | 0.00 | 0.00 | 79 | 1013.7 |
| 20260903111546 | 25 | 212 | 0.0 | 3.2 | 0.00 | 0.00 | 0.00 | 78 | 1013.7 |
| 20260903110043 | 25 | 214 | 0.0 | 3.2 | 0.00 | 0.00 | 0.00 | 77 | 1013.6 |
| 20260903104546 | 25 | 0 | 0.0 | 1.6 | 0.00 | 0.00 | 0.00 | 76 | 1013.5 |
| 20260903103049 | 26 | 0 | 0.0 | 3.2 | 0.00 | 0.00 | 0.00 | 75 | 1013.4 |
| 20260903101543 | 26 | 0 | 0.0 | 9.7 | 0.00 | 0.00 | 0.00 | 73 | 1013.4 |
| 20260903100042 | 26 | 0 | 1.6 | 8.0 | 0.00 | 0.00 | 0.00 | 73 | 1013.2 |
| 20260903094605 | 26 | 167 | 1.6 | 12.9 | 0.00 | 0.00 | 0.00 | 72 | 1013.1 |
| 20260903093055 | 26 | 140 | 1.6 | 8.0 | 0.00 | 0.00 | 0.00 | 73 | 1013.1 |
| 20260903091543 | 26 | 219 | 1.6 | 6.4 | 0.00 | 0.00 | 0.00 | 74 | 1013.3 |
| 20260903090043 | 25 | 203 | 0.0 | 0.0 | 0.00 | 0.00 | 0.00 | 76 | 1013.3 |
| 20260903084544 | 25 | 0 | 0.0 | 0.0 | 0.00 | 0.00 | 0.00 | 76 | 1013.3 |
| 20260903083050 | 25 | 0 | 0.0 | 0.0 | 0.00 | 0.00 | 0.00 | 77 | 1013.2 |
| 20260903081550 | 25 | 0 | 0.0 | 0.0 | 0.00 | 0.00 | 0.00 | 78 | 1013.3 |
| 20260903080045 | 25 | 0 | 0.0 | 0.0 | 0.00 | 0.00 | 0.00 | 78 | 1013.2 |
| 20260903074542 | 23 | 0 | 0.0 | 0.0 | 0.00 | 0.00 | 0.00 | 80 | 1013.1 |
| 20260903073055 | 24 | 0 | 0.0 | 0.0 | 0.00 | 0.00 | 0.00 | 79 | 1013.0 |
| 20260903071544 | 25 | 0 | 0.0 | 0.0 | 0.00 | 0.00 | 0.00 | 78 | 1013.1 |
| 20260903070042 | 25 | 0 | 0.0 | 0.0 | 0.00 | 0.00 | 0.00 | 77 | 1013.2 |
| 20260903064553 | 25 | 0 | 0.0 | 0.0 | 0.00 | 0.00 | 0.00 | 77 | 1013.2 |
| 20260903063049 | 24 | 0 | 0.0 | 0.0 | 0.00 | 0.00 | 0.00 | 78 | 1013.3 |
| 20260903061542 | 25 | 0 | 0.0 | 0.0 | 0.00 | 0.00 | 0.00 | 77 | 1013.3 |
| 20260903060053 | 25 | 0 | 0.0 | 0.0 | 0.00 | 0.00 | 0.00 | 78 | 1013.2 |
| 20260903054549 | 25 | 0 | 0.0 | 0.0 | 0.00 | 0.00 | 0.00 | 76 | 1013.3 |
| 20260903053048 | 26 | 0 | 0.0 | 0.0 | 0.00 | 0.00 | 0.00 | 74 | 1013.1 |
| 20260903051546 | 26 | 0 | 0.0 | 0.0 | 0.00 | 0.00 | 0.00 | 72 | 1013.1 |
| 20260903050056 | 26 | 0 | 0.0 | 3.2 | 0.00 | 0.00 | 0.00 | 73 | 1013.1 |
| 20260903044554 | 26 | 0 | 0.0 | 0.0 | 0.00 | 0.00 | 0.00 | 72 | 1013.0 |
| 20260903043045 | 26 | 0 | 0.0 | 0.0 | 0.00 | 0.00 | 0.00 | 71 | 1013.0 |
| 20260903041544 | 27 | 0 | 0.0 | 1.6 | 0.00 | 0.00 | 0.00 | 71 | 1013.0 |
| 20260903040053 | 27 | 0 | 0.0 | 1.6 | 0.00 | 0.00 | 0.00 | 70 | 1013.2 |
| 20260903034547 | 28 | 0 | 0.0 | 1.6 | 0.00 | 0.00 | 0.00 | 68 | 1013.3 |
| 20260903033046 | 28 | 0 | 0.0 | 1.6 | 0.00 | 0.00 | 0.00 | 68 | 1013.1 |
| 20260903031557 | 28 | 0 | 0.0 | 1.6 | 0.00 | 0.00 | 0.00 | 68 | 1013.1 |
| 20260903030053 | 28 | 0 | 0.0 | 1.6 | 0.00 | 0.00 | 0.00 | 67 | 1013.1 |
| 20260903024548 | 28 | 0 | 0.0 | 0.0 | 0.00 | 0.00 | 0.00 | 67 | 1013.1 |
| 20260903023057 | 29 | 0 | 0.0 | 0.0 | 0.00 | 0.00 | 0.00 | 65 | 1013.0 |
| 20260903021553 | 29 | 0 | 0.0 | 0.0 | 0.00 | 0.00 | 0.00 | 65 | 1013.0 |
| 20260903020052 | 29 | 0 | 0.0 | 0.0 | 0.00 | 0.00 | 0.00 | 65 | 1012.7 |
| 20260903014548 | 29 | 0 | 0.0 | 0.0 | 0.00 | 0.00 | 0.00 | 65 | 1012.6 |
| 20260903013057 | 30 | 0 | 0.0 | 0.0 | 0.00 | 0.00 | 0.00 | 65 | 1012.3 |
| 20260903011550 | 30 | 0 | 0.0 | 0.0 | 0.00 | 0.00 | 0.00 | 63 | 1012.2 |
| 20260903010048 | 31 | 0 | 0.0 | 0.0 | 0.00 | 0.00 | 0.00 | 59 | 1012.2 |
| 20260903004547 | 32 | 0 | 0.0 | 0.0 | 0.00 | 0.00 | 0.00 | 55 | 1012.1 |
| 20260903003050 | 33 | 0 | 0.0 | 0.0 | 0.00 | 0.00 | 0.00 | 52 | 1012.1 |
| 20260903001553 | 34 | 0 | 0.0 | 3.2 | 0.00 | 0.00 | 0.00 | 50 | 1012.2 |
| 20260903000052 | 35 | 0 | 0.0 | 3.2 | 0.00 | 0.00 | 0.00 | 48 | 1012.2 |
| 20260902234552 | 35 | 0 | 1.6 | 8.0 | 0.00 | 0.00 | 0.00 | 46 | 1012.2 |
| 20260902233043 | 36 | 0 | 0.0 | 6.4 | 0.00 | 0.00 | 0.00 | 44 | 1012.2 |
| 20260902231557 | 36 | 128 | 1.6 | 11.3 | 0.00 | 0.00 | 0.00 | 44 | 1012.2 |
| 20260902230059 | 36 | 223 | 3.2 | 9.7 | 0.00 | 0.00 | 0.00 | 43 | 1012.3 |
| 20260902224553 | 36 | 224 | 1.6 | 9.7 | 0.00 | 0.00 | 0.00 | 44 | 1012.2 |
| 20260902223046 | 36 | 271 | 1.6 | 8.0 | 0.00 | 0.00 | 0.00 | 46 | 1012.4 |
| 20260902221552 | 37 | 200 | 0.0 | 11.3 | 0.00 | 0.00 | 0.00 | 46 | 1012.4 |
| 20260902220043 | 37 | 236 | 0.0 | 8.0 | 0.00 | 0.00 | 0.00 | 45 | 1012.3 |
| 20260902214550 | 37 | 0 | 0.0 | 3.2 | 0.00 | 0.00 | 0.00 | 45 | 1012.5 |
| 20260902213050 | 36 | 255 | 1.6 | 9.7 | 0.00 | 0.00 | 0.00 | 45 | 1012.6 |
| 20260902211547 | 38 | 227 | 1.6 | 8.0 | 0.00 | 0.00 | 0.00 | 43 | 1012.8 |
| 20260902210042 | 38 | 165 | 3.2 | 14.5 | 0.00 | 0.00 | 0.00 | 42 | 1013.0 |
| 20260902204551 | 37 | 180 | 4.8 | 11.3 | 0.00 | 0.00 | 0.00 | 44 | 1013.2 |
| 20260902203047 | 37 | 182 | 3.2 | 14.5 | 0.00 | 0.00 | 0.00 | 44 | 1013.3 |
| 20260902201542 | 37 | 119 | 3.2 | 11.3 | 0.00 | 0.00 | 0.00 | 43 | 1013.5 |
| 20260902200040 | 37 | 172 | 3.2 | 9.7 | 0.00 | 0.00 | 0.00 | 45 | 1013.7 |
| 20260902194548 | 37 | 215 | 3.2 | 8.0 | 0.00 | 0.00 | 0.00 | 47 | 1013.8 |
| 20260902193056 | 37 | 266 | 3.2 | 12.9 | 0.00 | 0.00 | 0.00 | 48 | 1014.1 |
| 20260902191543 | 37 | 196 | 1.6 | 11.3 | 0.00 | 0.00 | 0.00 | 48 | 1014.2 |
| 20260902190052 | 37 | 216 | 1.6 | 11.3 | 0.00 | 0.00 | 0.00 | 48 | 1014.4 |
| 20260902184557 | 36 | 247 | 3.2 | 16.1 | 0.00 | 0.00 | 0.00 | 49 | 1014.7 |
| 20260902183048 | 36 | 141 | 4.8 | 20.9 | 0.00 | 0.00 | 0.00 | 49 | 1014.9 |
| 20260902181546 | 36 | 226 | 3.2 | 17.7 | 0.00 | 0.00 | 0.00 | 49 | 1015.1 |
| 20260902180055 | 36 | 205 | 3.2 | 12.9 | 0.00 | 0.00 | 0.00 | 52 | 1015.2 |
| 20260902174556 | 36 | 65 | 3.2 | 14.5 | 0.00 | 0.00 | 0.00 | 52 | 1015.4 |
| 20260902173042 | 35 | 219 | 1.6 | 16.1 | 0.00 | 0.00 | 0.00 | 54 | 1015.6 |
| 20260902171558 | 35 | 153 | 3.2 | 8.0 | 0.00 | 0.00 | 0.00 | 53 | 1015.7 |